TimeEDT,TemperatureF,Dew PointF,Humidity,Sea Level PressureIn,VisibilityMPH,Wind Direction,Wind SpeedMPH,Gust SpeedMPH,PrecipitationIn,Events,Conditions,WindDirDegrees,DateUTC
12:53 AM,60.1,41.0,49,30.03,10.0,East,4.6,-,N/A,,Clear,100,2013-05-04 04:53:00
1:53 AM,59.0,41.0,51,30.04,10.0,East,5.8,-,N/A,,Clear,100,2013-05-04 05:53:00
2:53 AM,63.0,39.0,41,30.03,10.0,SSE,6.9,-,N/A,,Clear,150,2013-05-04 06:53:00
3:53 AM,59.0,41.0,51,30.04,10.0,ESE,5.8,-,N/A,,Clear,110,2013-05-04 07:53:00
4:53 AM,55.9,42.1,60,30.05,10.0,East,4.6,-,N/A,,Clear,100,2013-05-04 08:53:00
5:53 AM,57.9,43.0,58,30.05,10.0,SE,4.6,-,N/A,,Clear,130,2013-05-04 09:53:00
6:53 AM,55.9,44.1,64,30.06,10.0,ESE,5.8,-,N/A,,Clear,110,2013-05-04 10:53:00
7:53 AM,55.9,45.0,67,30.07,10.0,East,5.8,-,N/A,,Clear,90,2013-05-04 11:53:00
8:53 AM,59.0,46.0,62,30.07,10.0,East,8.1,-,N/A,,Clear,100,2013-05-04 12:53:00
9:53 AM,62.1,44.1,52,30.07,10.0,ESE,15.0,23.0,N/A,,Clear,120,2013-05-04 13:53:00
10:53 AM,64.0,44.1,48,30.07,10.0,ESE,15.0,24.2,N/A,,Clear,110,2013-05-04 14:53:00
11:53 AM,66.9,44.1,44,30.06,10.0,East,15.0,20.7,N/A,,Clear,90,2013-05-04 15:53:00
12:53 PM,68.0,43.0,40,30.05,10.0,East,13.8,-,N/A,,Clear,80,2013-05-04 16:53:00
1:53 PM,69.1,37.9,32,30.03,10.0,East,12.7,21.9,N/A,,Clear,90,2013-05-04 17:53:00
2:53 PM,70.0,37.9,31,30.02,10.0,East,9.2,18.4,N/A,,Clear,100,2013-05-04 18:53:00
3:53 PM,69.1,37.0,31,30.01,10.0,ESE,12.7,19.6,N/A,,Clear,110,2013-05-04 19:53:00
4:53 PM,70.0,39.0,32,30.00,10.0,East,15.0,21.9,N/A,,Clear,100,2013-05-04 20:53:00
5:53 PM,71.1,41.0,34,30.00,10.0,ESE,13.8,21.9,N/A,,Clear,120,2013-05-04 21:53:00
6:53 PM,70.0,44.1,39,30.01,10.0,East,8.1,-,N/A,,Clear,100,2013-05-04 22:53:00
7:53 PM,66.0,44.1,45,30.03,10.0,East,10.4,18.4,N/A,,Clear,80,2013-05-04 23:53:00
8:53 PM,62.1,43.0,50,30.04,10.0,ENE,8.1,-,N/A,,Clear,70,2013-05-05 00:53:00
9:53 PM,59.0,42.1,53,30.05,10.0,NE,5.8,-,N/A,,Clear,50,2013-05-05 01:53:00
10:53 PM,57.9,41.0,53,30.06,10.0,ENE,6.9,-,N/A,,Clear,60,2013-05-05 02:53:00
11:53 PM,55.9,41.0,57,30.05,10.0,ENE,6.9,-,N/A,,Clear,60,2013-05-05 03:53:00